QPF
0.00 0.00 0.00 0.00 0.00 0.00 0.00 0.00 0.00 0.00 0.01 0.01 0.00 0.00 0.00 0.00 0.00 0.01 0.02 0.02 0.03 0.05 0.08 0.10 0.09 0.08 0.08 0.09 0.09 0.09 0.08 0.08 0.10 0.20 0.32 0.28 0.21 0.14 0.10 0.09 0.08 0.08 0.08
0.00 0.00 0.00 0.00 0.00 0.00 0.00 0.00 0.00 0.01 0.01 0.00 0.00 0.00 0.00 0.01 0.00 0.01 0.02 0.02 0.03 0.03 0.05 0.09 0.10 0.09 0.07 0.08 0.08 0.09 0.09 0.07 0.07 0.12 0.21 0.21 0.16 0.11 0.09 0.08 0.06 0.06 0.06
0.00 0.00 0.00 0.00 0.00 0.00 0.00 0.01 0.00 0.00 0.00 0.01 0.01 0.00 0.00 0.01 0.01 0.01 0.02 0.01 0.02 0.03 0.04 0.06 0.09 0.11 0.10 0.10 0.10 0.10 0.09 0.07 0.06 0.07 0.11 0.13 0.14 0.10 0.08 0.06 0.05 0.04 0.05
0.00 0.00 0.00 0.00 0.00 0.00 0.00 0.01 0.00 0.00 0.00 0.00 0.01 0.01 0.01 0.03 0.03 0.03 0.01 0.01 0.01 0.01 0.02 0.04 0.06 0.08 0.09 0.10 0.11 0.09 0.08 0.07 0.06 0.05 0.07 0.09 0.11 0.09 0.08 0.06 0.05 0.05 0.06
0.00 0.00 0.00 0.00 0.00 0.00 0.00 0.00 0.00 0.00 0.01 0.01 0.01 0.01 0.02 0.04 0.04 0.04 0.02 0.01 0.01 0.02 0.02 0.03 0.04 0.04 0.07 0.11 0.12 0.10 0.09 0.08 0.06 0.05 0.05 0.06 0.08 0.08 0.07 0.06 0.05 0.05 0.06
0.00 0.00 0.00 0.00 0.00 0.00 0.00 0.00 0.00 0.01 0.01 0.01 0.01 0.01 0.01 0.04 0.04 0.04 0.03 0.02 0.01 0.02 0.02 0.02 0.02 0.03 0.06 0.10 0.11 0.11 0.11 0.11 0.08 0.06 0.05 0.05 0.06 0.05 0.05 0.05 0.06 0.04 0.05
0.00 0.00 0.00 0.00 0.00 0.00 0.00 0.00 0.00 0.01 0.01 0.01 0.00 0.00 0.02 0.03 0.03 0.02 0.03 0.03 0.02 0.02 0.02 0.02 0.02 0.02 0.04 0.06 0.09 0.11 0.12 0.12 0.11 0.08 0.06 0.05 0.05 0.04 0.05 0.05 0.05 0.04 0.03
0.00 0.00 0.00 0.00 0.00 0.00 0.00 0.00 0.00 0.00 0.00 0.01 0.00 0.00 0.01 0.01 0.02 0.01 0.02 0.02 0.03 0.02 0.01 0.02 0.02 0.01 0.02 0.04 0.04 0.08 0.09 0.10 0.11 0.09 0.08 0.07 0.05 0.05 0.04 0.04 0.05 0.05 0.04
0.00 0.00 0.00 0.00 0.00 0.00 0.00 0.00 0.00 0.00 0.00 0.00 0.00 0.01 0.01 0.01 0.02 0.01 0.01 0.01 0.03 0.03 0.02 0.02 0.01 0.01 0.02 0.03 0.03 0.04 0.06 0.08 0.09 0.11 0.10 0.07 0.06 0.05 0.04 0.04 0.05 0.06 0.05
0.00 0.00 0.00 0.00 0.00 0.00 0.00 0.00 0.00 0.00 0.00 0.00 0.00 0.00 0.01 0.01 0.01 0.01 0.00 0.01 0.03 0.03 0.03 0.03 0.03 0.02 0.02 0.03 0.03 0.04 0.05 0.06 0.07 0.10 0.11 0.09 0.07 0.06 0.06 0.04 0.05 0.05 0.05
0.00 0.00 0.00 0.00 0.00 0.00 0.00 0.00 0.00 0.00 0.00 0.00 0.00 0.00 0.01 0.01 0.01 0.00 0.00 0.01 0.01 0.01 0.02 0.03 0.03 0.04 0.03 0.03 0.03 0.04 0.04 0.05 0.07 0.10 0.12 0.11 0.11 0.10 0.08 0.07 0.06 0.06 0.06
0.00 0.00 0.00 0.00 0.00 0.00 0.00 0.00 0.00 0.00 0.00 0.00 0.01 0.00 0.00 0.00 0.01 0.01 0.01 0.01 0.01 0.01 0.01 0.02 0.02 0.04 0.04 0.04 0.04 0.04 0.03 0.04 0.05 0.08 0.10 0.09 0.11 0.13 0.13 0.11 0.09 0.07 0.07
0.00 0.00 0.00 0.00 0.00 0.00 0.00 0.00 0.00 0.00 0.00 0.00 0.01 0.00 0.00 0.00 0.00 0.01 0.01 0.01 0.01 0.01 0.01 0.01 0.03 0.03 0.03 0.03 0.04 0.05 0.03 0.04 0.05 0.05 0.06 0.07 0.07 0.10 0.12 0.13 0.13 0.13 0.11
0.00 0.00 0.00 0.00 0.00 0.00 0.00 0.00 0.00 0.00 0.00 0.00 0.00 0.00 0.00 0.00 0.01 0.01 0.01 0.00 0.00 0.00 0.00 0.01 0.04 0.04 0.02 0.02 0.03 0.04 0.03 0.03 0.04 0.05 0.04 0.06 0.06 0.06 0.08 0.09 0.11 0.12 0.13
0.00 0.00 0.00 0.00 0.00 0.00 0.00 0.00 0.00 0.00 0.00 0.00 0.00 0.00 0.00 0.00 0.00 0.01 0.01 0.01 0.00 0.00 0.00 0.00 0.01 0.02 0.02 0.02 0.02 0.03 0.03 0.03 0.03 0.04 0.03 0.05 0.06 0.06 0.06 0.06 0.07 0.09 0.10
0.00 0.00 0.00 0.00 0.00 0.00 0.00 0.00 0.00 0.00 0.00 0.00 0.00 0.00 0.00 0.00 0.00 0.01 0.01 0.01 0.01 0.01 0.00 0.00 0.00 0.01 0.01 0.02 0.03 0.03 0.03 0.04 0.03 0.04 0.03 0.04 0.05 0.06 0.06 0.06 0.06 0.06 0.06
0.00 0.00 0.00 0.00 0.00 0.00 0.00 0.00 0.00 0.00 0.00 0.00 0.00 0.00 0.00 0.00 0.00 0.00 0.00 0.00 0.00 0.01 0.00 0.00 0.00 0.01 0.02 0.02 0.02 0.03 0.03 0.03 0.04 0.04 0.04 0.04 0.04 0.04 0.05 0.06 0.04 0.04 0.05
0.00 0.00 0.00 0.00 0.00 0.00 0.00 0.00 0.00 0.00 0.00 0.00 0.00 0.00 0.00 0.00 0.00 0.00 0.00 0.00 0.00 0.00 0.00 0.01 0.01 0.01 0.02 0.03 0.03 0.03 0.03 0.03 0.03 0.04 0.04 0.03 0.03 0.03 0.04 0.04 0.04 0.04 0.03
0.00 0.00 0.00 0.00 0.00 0.00 0.00 0.00 0.00 0.00 0.00 0.00 0.00 0.00 0.00 0.00 0.00 0.00 0.00 0.00 0.00 0.01 0.01 0.01 0.02 0.02 0.03 0.04 0.03 0.03 0.04 0.04 0.04 0.03 0.03 0.03 0.03 0.03 0.03 0.03 0.04 0.04 0.04
0.00 0.00 0.00 0.00 0.00 0.00 0.00 0.00 0.00 0.00 0.00 0.00 0.00 0.00 0.00 0.00 0.00 0.00 0.00 0.00 0.00 0.00 0.01 0.01 0.02 0.03 0.04 0.04 0.05 0.05 0.05 0.05 0.05 0.03 0.02 0.02 0.02 0.03 0.03 0.03 0.03 0.03 0.04
0.00 0.00 0.00 0.00 0.00 0.00 0.00 0.00 0.00 0.00 0.00 0.00 0.00 0.00 0.00 0.00 0.00 0.00 0.00 0.00 0.00 0.00 0.01 0.01 0.01 0.02 0.03 0.04 0.04 0.05 0.06 0.06 0.05 0.04 0.03 0.02 0.02 0.02 0.03 0.03 0.02 0.03 0.03
0.00 0.00 0.00 0.00 0.00 0.00 0.00 0.00 0.00 0.00 0.00 0.00 0.00 0.00 0.00 0.00 0.00 0.00 0.00 0.00 0.00 0.00 0.01 0.01 0.01 0.01 0.01 0.02 0.03 0.05 0.06 0.06 0.05 0.04 0.04 0.03 0.02 0.03 0.03 0.03 0.02 0.02 0.03
0.00 0.00 0.00 0.00 0.00 0.00 0.00 0.00 0.00 0.00 0.00 0.00 0.00 0.00 0.00 0.00 0.00 0.00 0.00 0.00 0.00 0.00 0.01 0.01 0.01 0.01 0.01 0.02 0.04 0.04 0.05 0.06 0.06 0.05 0.05 0.04 0.03 0.02 0.03 0.05 0.05 0.04 0.03
0.00 0.00 0.00 0.00 0.00 0.00 0.00 0.00 0.00 0.00 0.00 0.00 0.00 0.00 0.00 0.00 0.00 0.00 0.00 0.00 0.00 0.00 0.01 0.01 0.01 0.01 0.01 0.02 0.03 0.04 0.05 0.07 0.07 0.07 0.07 0.07 0.05 0.03 0.02 0.02 0.03 0.04 0.05
0.00 0.00 0.00 0.00 0.00 0.00 0.00 0.00 0.00 0.00 0.00 0.00 0.00 0.00 0.00 0.00 0.00 0.00 0.01 0.01 0.01 0.01 0.01 0.01 0.01 0.01 0.01 0.02 0.03 0.05 0.04 0.05 0.06 0.05 0.05 0.06 0.05 0.04 0.03 0.03 0.02 0.02 0.02
0.00 0.00 0.00 0.00 0.00 0.00 0.00 0.00 0.00 0.00 0.00 0.00 0.00 0.00 0.00 0.00 0.00 0.00 0.00 0.01 0.01 0.01 0.01 0.01 0.01 0.01 0.01 0.02 0.04 0.05 0.06 0.06 0.05 0.05 0.04 0.05 0.06 0.05 0.03 0.02 0.02 0.03 0.02
MSLP
1016.87 1016.77 1016.59 1016.34 1016.07 1015.82 1015.61 1015.47 1015.39 1015.36 1015.34 1015.31 1015.24 1015.13 1015.00 1014.87 1014.77 1014.74 1014.78 1014.90 1015.07 1015.27 1015.46 1015.62 1015.73 1015.79 1015.82 1015.83 1015.85 1015.88 1015.94 1016.01 1016.09 1016.18 1016.25 1016.31 1016.36 1016.40 1016.44 1016.46 1016.48 1016.48 1016.47
1017.13 1017.02 1016.82 1016.56 1016.27 1015.99 1015.76 1015.59 1015.49 1015.45 1015.44 1015.42 1015.39 1015.32 1015.23 1015.13 1015.06 1015.04 1015.08 1015.18 1015.33 1015.50 1015.67 1015.81 1015.90 1015.95 1015.97 1015.96 1015.97 1015.99 1016.04 1016.12 1016.22 1016.34 1016.45 1016.56 1016.66 1016.74 1016.81 1016.87 1016.91 1016.94 1016.96
1017.38 1017.27 1017.07 1016.81 1016.51 1016.23 1015.98 1015.80 1015.68 1015.63 1015.62 1015.63 1015.62 1015.59 1015.54 1015.48 1015.43 1015.42 1015.44 1015.51 1015.62 1015.75 1015.87 1015.96 1016.02 1016.04 1016.04 1016.02 1016.01 1016.04 1016.09 1016.19 1016.31 1016.47 1016.62 1016.78 1016.93 1017.06 1017.17 1017.27 1017.34 1017.40 1017.44
1017.64 1017.52 1017.33 1017.08 1016.80 1016.52 1016.28 1016.09 1015.97 1015.91 1015.90 1015.92 1015.93 1015.94 1015.92 1015.89 1015.86 1015.84 1015.85 1015.88 1015.93 1016.00 1016.05 1016.09 1016.10 1016.09 1016.06 1016.03 1016.02 1016.04 1016.10 1016.22 1016.37 1016.56 1016.76 1016.96 1017.16 1017.33 1017.49 1017.62 1017.72 1017.81 1017.87
1017.88 1017.76 1017.59 1017.36 1017.11 1016.86 1016.63 1016.44 1016.32 1016.26 1016.25 1016.27 1016.30 1016.33 1016.35 1016.34 1016.33 1016.31 1016.29 1016.28 1016.28 1016.28 1016.27 1016.24 1016.20 1016.14 1016.09 1016.04 1016.02 1016.05 1016.12 1016.24 1016.41 1016.62 1016.85 1017.09 1017.31 1017.53 1017.72 1017.88 1018.01 1018.12 1018.21
1018.09 1017.98 1017.83 1017.64 1017.43 1017.21 1017.01 1016.84 1016.72 1016.65 1016.64 1016.66 1016.70 1016.75 1016.79 1016.81 1016.81 1016.79 1016.76 1016.72 1016.67 1016.60 1016.53 1016.45 1016.35 1016.26 1016.18 1016.11 1016.09 1016.11 1016.18 1016.30 1016.47 1016.68 1016.92 1017.16 1017.40 1017.63 1017.84 1018.02 1018.19 1018.32 1018.44
1018.27 1018.16 1018.04 1017.89 1017.73 1017.55 1017.38 1017.23 1017.12 1017.05 1017.03 1017.05 1017.10 1017.17 1017.23 1017.28 1017.30 1017.29 1017.26 1017.19 1017.10 1016.99 1016.87 1016.74 1016.61 1016.48 1016.37 1016.29 1016.25 1016.26 1016.32 1016.42 1016.57 1016.76 1016.97 1017.20 1017.43 1017.65 1017.86 1018.06 1018.24 1018.40 1018.54
1018.42 1018.32 1018.22 1018.12 1018.00 1017.87 1017.74 1017.62 1017.51 1017.44 1017.42 1017.44 1017.49 1017.57 1017.66 1017.73 1017.78 1017.79 1017.76 1017.69 1017.59 1017.45 1017.29 1017.13 1016.96 1016.81 1016.68 1016.59 1016.53 1016.52 1016.55 1016.62 1016.73 1016.88 1017.05 1017.23 1017.42 1017.62 1017.82 1018.01 1018.19 1018.37 1018.53
1018.54 1018.45 1018.39 1018.32 1018.26 1018.17 1018.08 1017.97 1017.88 1017.81 1017.78 1017.80 1017.86 1017.94 1018.05 1018.15 1018.23 1018.27 1018.25 1018.19 1018.08 1017.93 1017.76 1017.58 1017.40 1017.23 1017.09 1016.98 1016.90 1016.86 1016.86 1016.89 1016.95 1017.04 1017.15 1017.28 1017.43 1017.58 1017.75 1017.92 1018.09 1018.27 1018.46
1018.65 1018.58 1018.55 1018.53 1018.50 1018.46 1018.39 1018.31 1018.23 1018.16 1018.12 1018.13 1018.18 1018.28 1018.40 1018.52 1018.63 1018.69 1018.70 1018.65 1018.55 1018.41 1018.24 1018.05 1017.86 1017.69 1017.54 1017.42 1017.32 1017.25 1017.21 1017.20 1017.21 1017.24 1017.30 1017.37 1017.47 1017.58 1017.71 1017.85 1018.00 1018.17 1018.35
1018.78 1018.73 1018.72 1018.74 1018.75 1018.74 1018.70 1018.64 1018.56 1018.48 1018.43 1018.43 1018.48 1018.57 1018.70 1018.83 1018.95 1019.04 1019.07 1019.04 1018.96 1018.83 1018.66 1018.48 1018.30 1018.13 1017.98 1017.85 1017.74 1017.65 1017.58 1017.53 1017.49 1017.48 1017.49 1017.52 1017.57 1017.64 1017.73 1017.84 1017.97 1018.11 1018.27
1018.91 1018.90 1018.92 1018.97 1019.01 1019.03 1019.01 1018.95 1018.87 1018.79 1018.73 1018.71 1018.75 1018.83 1018.95 1019.08 1019.21 1019.30 1019.35 1019.34 1019.27 1019.16 1019.02 1018.85 1018.68 1018.52 1018.37 1018.24 1018.12 1018.01 1017.92 1017.84 1017.78 1017.74 1017.72 1017.72 1017.74 1017.78 1017.84 1017.92 1018.01 1018.12 1018.24
1019.06 1019.07 1019.12 1019.20 1019.26 1019.30 1019.29 1019.24 1019.16 1019.08 1019.01 1018.98 1018.99 1019.06 1019.16 1019.29 1019.41 1019.50 1019.56 1019.56 1019.51 1019.42 1019.29 1019.15 1019.00 1018.85 1018.71 1018.57 1018.45 1018.33 1018.23 1018.13 1018.06 1018.00 1017.97 1017.95 1017.96 1017.99 1018.03 1018.08 1018.14 1018.21 1018.28
1019.18 1019.22 1019.30 1019.40 1019.48 1019.53 1019.54 1019.50 1019.42 1019.34 1019.26 1019.22 1019.22 1019.27 1019.36 1019.46 1019.57 1019.66 1019.71 1019.72 1019.69 1019.62 1019.52 1019.40 1019.27 1019.14 1019.01 1018.88 1018.75 1018.63 1018.51 1018.41 1018.32 1018.26 1018.22 1018.21 1018.22 1018.24 1018.27 1018.31 1018.33 1018.36 1018.38
1019.25 1019.32 1019.43 1019.53 1019.63 1019.70 1019.72 1019.69 1019.63 1019.56 1019.49 1019.45 1019.44 1019.48 1019.55 1019.64 1019.73 1019.80 1019.85 1019.87 1019.85 1019.80 1019.73 1019.64 1019.54 1019.42 1019.30 1019.17 1019.04 1018.91 1018.78 1018.66 1018.57 1018.50 1018.46 1018.46 1018.47 1018.49 1018.52 1018.54 1018.54 1018.53 1018.51
1019.24 1019.34 1019.46 1019.58 1019.69 1019.77 1019.81 1019.81 1019.77 1019.73 1019.68 1019.65 1019.65 1019.69 1019.74 1019.82 1019.89 1019.96 1020.00 1020.03 1020.02 1020.00 1019.95 1019.89 1019.82 1019.73 1019.62 1019.49 1019.35 1019.20 1019.05 1018.92 1018.81 1018.72 1018.68 1018.66 1018.68 1018.70 1018.73 1018.74 1018.73 1018.69 1018.64
1019.14 1019.25 1019.38 1019.51 1019.63 1019.73 1019.79 1019.83 1019.83 1019.83 1019.82 1019.82 1019.84 1019.88 1019.94 1020.01 1020.07 1020.13 1020.17 1020.20 1020.21 1020.21 1020.20 1020.17 1020.12 1020.05 1019.96 1019.83 1019.68 1019.51 1019.34 1019.17 1019.03 1018.92 1018.85 1018.82 1018.82 1018.83 1018.85 1018.86 1018.84 1018.79 1018.73
1018.96 1019.08 1019.21 1019.34 1019.47 1019.59 1019.68 1019.76 1019.81 1019.86 1019.90 1019.94 1020.00 1020.06 1020.12 1020.18 1020.24 1020.29 1020.33 1020.36 1020.39 1020.41 1020.43 1020.43 1020.42 1020.37 1020.29 1020.17 1020.00 1019.82 1019.61 1019.40 1019.22 1019.07 1018.96 1018.90 1018.87 1018.87 1018.87 1018.87 1018.84 1018.80 1018.73
1018.72 1018.84 1018.96 1019.10 1019.24 1019.38 1019.50 1019.62 1019.72 1019.82 1019.91 1020.00 1020.09 1020.17 1020.25 1020.31 1020.36 1020.41 1020.44 1020.48 1020.52 1020.56 1020.60 1020.64 1020.65 1020.63 1020.56 1020.45 1020.28 1020.07 1019.84 1019.60 1019.37 1019.17 1019.02 1018.91 1018.84 1018.81 1018.79 1018.77 1018.74 1018.70 1018.65
1018.48 1018.59 1018.71 1018.84 1018.99 1019.14 1019.29 1019.44 1019.59 1019.73 1019.87 1020.00 1020.12 1020.22 1020.30 1020.36 1020.41 1020.44 1020.47 1020.50 1020.55 1020.60 1020.66 1020.72 1020.76 1020.77 1020.72 1020.62 1020.46 1020.25 1020.00 1019.73 1019.46 1019.22 1019.01 1018.86 1018.74 1018.66 1018.61 1018.57 1018.54 1018.50 1018.46
1018.29 1018.39 1018.50 1018.63 1018.77 1018.93 1019.09 1019.26 1019.43 1019.61 1019.78 1019.93 1020.07 1020.18 1020.26 1020.32 1020.35 1020.37 1020.39 1020.41 1020.45 1020.51 1020.58 1020.65 1020.72 1020.75 1020.73 1020.65 1020.51 1020.30 1020.05 1019.77 1019.48 1019.20 1018.95 1018.75 1018.58 1018.46 1018.36 1018.30 1018.25 1018.21 1018.18
1018.20 1018.29 1018.39 1018.51 1018.65 1018.79 1018.95 1019.13 1019.30 1019.49 1019.67 1019.83 1019.97 1020.08 1020.16 1020.20 1020.21 1020.21 1020.21 1020.21 1020.24 1020.29 1020.36 1020.45 1020.52 1020.58 1020.58 1020.53 1020.42 1020.24 1020.00 1019.72 1019.43 1019.13 1018.85 1018.61 1018.39 1018.22 1018.08 1017.97 1017.89 1017.84 1017.81
1018.25 1018.33 1018.43 1018.53 1018.65 1018.77 1018.91 1019.07 1019.23 1019.40 1019.57 1019.72 1019.85 1019.95 1020.01 1020.04 1020.03 1020.01 1019.98 1019.96 1019.97 1020.00 1020.06 1020.14 1020.22 1020.29 1020.32 1020.30 1020.21 1020.07 1019.86 1019.61 1019.32 1019.02 1018.73 1018.44 1018.19 1017.96 1017.77 1017.62 1017.50 1017.42 1017.38
1018.45 1018.53 1018.62 1018.70 1018.79 1018.89 1018.99 1019.11 1019.24 1019.38 1019.52 1019.66 1019.77 1019.85 1019.90 1019.91 1019.89 1019.84 1019.79 1019.74 1019.72 1019.73 1019.76 1019.82 1019.89 1019.96 1020.00 1020.00 1019.95 1019.84 1019.67 1019.45 1019.18 1018.89 1018.58 1018.28 1017.98 1017.70 1017.46 1017.25 1017.08 1016.97 1016.90
1018.77 1018.86 1018.94 1019.00 1019.06 1019.12 1019.18 1019.25 1019.34 1019.45 1019.56 1019.67 1019.76 1019.83 1019.87 1019.87 1019.84 1019.78 1019.70 1019.63 1019.58 1019.55 1019.55 1019.58 1019.62 1019.67 1019.71 1019.72 1019.69 1019.61 1019.47 1019.28 1019.03 1018.75 1018.44 1018.11 1017.77 1017.45 1017.14 1016.87 1016.65 1016.48 1016.38
1019.18 1019.27 1019.34 1019.38 1019.41 1019.43 1019.45 1019.48 1019.53 1019.60 1019.68 1019.77 1019.86 1019.92 1019.96 1019.96 1019.92 1019.86 1019.77 1019.68 1019.59 1019.52 1019.48 1019.47 1019.47 1019.49 1019.51 1019.51 1019.48 1019.41 1019.29 1019.11 1018.88 1018.61 1018.29 1017.94 1017.56 1017.19 1016.83 1016.49 1016.21 1015.98 1015.83
Thickness
5718 5716 5714 5713 5711 5710 5709 5708 5707 5706 5706 5707 5707 5708 5709 5711 5712 5714 5716 5718 5721 5723 5726 5728 5731 5733 5735 5738 5740 5742 5744 5746 5748 5751 5753 5755 5757 5758 5759 5759 5759 5760 5760
5716 5714 5712 5710 5708 5707 5706 5705 5703 5703 5702 5703 5703 5704 5705 5706 5708 5710 5712 5714 5717 5719 5722 5725 5728 5730 5733 5735 5738 5740 5742 5744 5746 5748 5750 5753 5754 5755 5756 5757 5757 5757 5758
5714 5711 5709 5707 5706 5704 5703 5702 5701 5700 5699 5699 5699 5700 5701 5702 5704 5706 5708 5710 5713 5715 5718 5721 5725 5727 5730 5733 5735 5738 5739 5741 5743 5745 5748 5750 5751 5753 5753 5754 5754 5755 5755
5712 5709 5707 5705 5703 5702 5700 5699 5697 5695 5694 5694 5694 5695 5696 5698 5700 5702 5704 5706 5709 5711 5714 5718 5721 5724 5727 5730 5732 5735 5737 5739 5741 5743 5745 5747 5749 5750 5750 5751 5752 5752 5753
5710 5708 5705 5703 5701 5699 5697 5696 5693 5691 5690 5690 5691 5692 5692 5694 5695 5697 5700 5702 5705 5708 5711 5714 5717 5721 5724 5726 5729 5732 5734 5736 5738 5740 5742 5744 5746 5747 5748 5748 5749 5750 5750
5708 5706 5703 5701 5699 5697 5694 5692 5690 5689 5688 5687 5689 5688 5688 5690 5691 5693 5695 5698 5701 5704 5707 5710 5713 5717 5720 5723 5726 5729 5731 5733 5736 5738 5740 5741 5743 5744 5745 5746 5747 5748 5748
5706 5704 5702 5699 5697 5694 5691 5690 5689 5687 5685 5685 5685 5683 5685 5686 5687 5689 5691 5694 5697 5700 5703 5706 5710 5713 5717 5720 5723 5726 5728 5731 5733 5735 5737 5738 5740 5741 5743 5744 5745 5745 5745
5705 5703 5701 5698 5695 5693 5691 5689 5687 5684 5683 5683 5680 5678 5675 5678 5682 5686 5688 5690 5693 5697 5700 5703 5706 5710 5713 5717 5720 5723 5726 5728 5730 5732 5734 5736 5737 5738 5740 5741 5742 5743 5743
5705 5702 5700 5697 5694 5692 5689 5687 5686 5683 5680 5680 5679 5677 5672 5669 5673 5680 5684 5687 5689 5693 5696 5700 5703 5706 5710 5713 5717 5720 5723 5725 5727 5730 5732 5733 5735 5736 5737 5738 5739 5740 5741
5704 5702 5700 5697 5695 5692 5689 5687 5685 5683 5681 5678 5678 5677 5676 5674 5672 5673 5679 5684 5687 5690 5693 5697 5700 5703 5706 5710 5713 5717 5720 5722 5725 5727 5729 5731 5733 5734 5735 5736 5737 5738 5738
5704 5703 5700 5698 5695 5692 5690 5688 5685 5683 5681 5678 5677 5676 5676 5675 5674 5672 5672 5678 5683 5687 5690 5693 5697 5700 5703 5707 5710 5713 5716 5719 5721 5724 5726 5728 5730 5731 5732 5734 5734 5735 5736
5704 5703 5701 5698 5696 5693 5691 5688 5686 5684 5681 5679 5678 5676 5675 5674 5673 5672 5672 5673 5677 5683 5687 5691 5694 5697 5700 5703 5707 5710 5713 5716 5718 5721 5723 5725 5727 5728 5730 5731 5732 5733 5734
5703 5702 5701 5699 5696 5694 5692 5690 5687 5685 5683 5680 5678 5677 5676 5675 5675 5674 5673 5673 5674 5679 5684 5688 5691 5694 5697 5700 5703 5707 5710 5713 5715 5718 5720 5722 5724 5725 5727 5728 5729 5730 5731
5704 5703 5701 5699 5697 5695 5693 5690 5688 5685 5684 5682 5680 5678 5677 5676 5676 5675 5674 5673 5673 5675 5679 5683 5689 5692 5695 5698 5701 5704 5707 5710 5712 5715 5717 5719 5721 5722 5724 5725 5726 5727 5728
5705 5703 5702 5699 5697 5695 5693 5691 5688 5685 5684 5682 5680 5679 5678 5677 5676 5676 5675 5675 5673 5671 5673 5680 5684 5690 5693 5696 5698 5701 5704 5706 5709 5711 5714 5716 5718 5719 5720 5721 5723 5724 5725
5705 5704 5702 5699 5697 5695 5693 5690 5688 5686 5683 5682 5680 5679 5678 5677 5676 5675 5675 5675 5674 5673 5672 5677 5681 5686 5690 5693 5696 5698 5701 5703 5706 5708 5710 5712 5714 5716 5717 5718 5719 5720 5721
5705 5703 5701 5699 5696 5694 5692 5689 5687 5685 5683 5681 5680 5678 5677 5676 5675 5674 5674 5673 5673 5673 5672 5676 5679 5683 5686 5689 5693 5695 5697 5700 5702 5704 5707 5709 5710 5712 5713 5714 5715 5716 5717
5704 5702 5700 5697 5695 5693 5691 5688 5686 5684 5682 5680 5678 5677 5675 5675 5673 5672 5672 5672 5671 5671 5671 5672 5676 5679 5682 5685 5688 5691 5694 5696 5698 5701 5703 5705 5706 5707 5708 5710 5711 5712 5713
5701 5700 5698 5696 5694 5692 5689 5687 5684 5682 5680 5678 5676 5674 5673 5672 5671 5670 5670 5669 5668 5669 5669 5669 5671 5674 5677 5680 5683 5686 5689 5691 5693 5696 5698 5700 5701 5702 5704 5705 5706 5707 5709
5699 5697 5695 5694 5692 5690 5688 5686 5683 5680 5678 5676 5674 5672 5670 5669 5668 5667 5667 5666 5665 5665 5665 5665 5667 5669 5672 5675 5676 5678 5681 5684 5687 5690 5692 5694 5696 5697 5699 5700 5701 5702 5703
5695 5693 5692 5690 5689 5688 5686 5683 5681 5678 5675 5673 5671 5669 5667 5666 5665 5664 5663 5662 5661 5660 5660 5660 5662 5663 5666 5668 5669 5672 5673 5677 5680 5683 5685 5687 5689 5691 5692 5693 5695 5696 5697
5690 5688 5687 5685 5684 5683 5682 5681 5678 5674 5671 5669 5666 5665 5664 5663 5662 5660 5659 5658 5657 5655 5654 5654 5656 5657 5660 5662 5664 5665 5666 5668 5671 5677 5677 5680 5682 5683 5685 5687 5689 5690 5691
5684 5682 5681 5679 5678 5677 5677 5676 5674 5669 5666 5663 5661 5659 5659 5658 5656 5654 5654 5653 5651 5650 5650 5649 5649 5652 5654 5656 5657 5659 5660 5661 5664 5668 5668 5671 5674 5675 5679 5680 5682 5683 5684
5678 5676 5674 5673 5671 5671 5671 5669 5667 5663 5660 5657 5654 5652 5650 5649 5648 5647 5646 5645 5644 5643 5642 5643 5644 5646 5648 5650 5651 5653 5654 5655 5658 5660 5661 5662 5666 5668 5671 5672 5674 5676 5677
5671 5669 5668 5666 5664 5663 5663 5662 5660 5656 5652 5649 5647 5645 5643 5641 5641 5640 5637 5635 5635 5635 5636 5636 5637 5639 5641 5643 5645 5645 5645 5646 5649 5652 5653 5653 5657 5658 5661 5664 5666 5668 5669
5665 5663 5661 5658 5657 5655 5655 5654 5652 5648 5644 5642 5639 5637 5635 5633 5632 5630 5627 5625 5624 5625 5626 5627 5628 5631 5632 5634 5636 5637 5638 5637 5639 5642 5646 5644 5646 5646 5649 5654 5656 5658 5659